Lexington Weather

Lexington, Massachusetts, USA

44°F
5/12/2021 4:34am 
  • Lexington Conditions: Clear
  • Temperature: 44.4°F / 6.9°CColder 0.6°F than last hour.
  • Dew Point: 33.4°FIncreased 1.0°Fsince last hour.
  • Relative Humidity: 65%Increased 4.0% since last hour.
  • Wind: Calm, 10-min avg: Calm, gust: 2 mph
  • Barometer: 29.92 in Steady
  • Visibility: 10 miles
  • Rain Today: 0.00 in
  •   

Regional Weather Roundup
for Boston / Norton, MA

        
000
ASUS41 KBOX 071004
RWRBOX

REGIONAL WEATHER ROUNDUP
NATIONAL WEATHER SERVICE BOSTON/NORTON MA
600 AM EDT FRI MAY 07 2021

NOTE:  "FAIR" INDICATES FEW OR NO CLOUDS BELOW 12,000 FEET WITH NO 
SIGNIFICANT WEATHER AND/OR OBSTRUCTIONS TO VISIBILITY.

MAZALL-071100-
EASTERN MASSACHUSETTS
  
CITY           SKY/WX    TMP DP  RH WIND       PRES   REMARKS
BOSTON         MOCLDY    49  31  49 N6        29.97S                  
BEVERLY        PTCLDY    41  36  82 N7        29.97R                  
LAWRENCE       PTCLDY    45  36  70 CALM      29.99R                  
BEDFORD        PTCLDY    39  36  89 CALM      29.97R                  
BLUE HILL        N/A     46  29  51 NE12      29.94S                  
NORWOOD        PTCLDY    40  36  86 CALM      29.96S FOG              
MARSHFIELD     PTCLDY    43  41  93 CALM      29.96R                  
PLYMOUTH       PTCLDY    40  36  86 CALM      29.94S                  
TAUNTON        PTCLDY    36  34  92 CALM      29.95S                  
NEW BEDFORD    PTCLDY    44  36  73 CALM      29.94S                  
$$

MAZALL-071100-
CAPE COD AND THE ISLANDS
  
CITY           SKY/WX    TMP DP  RH WIND       PRES   REMARKS
FALMOUTH       CLEAR     45  41  87 NE7       29.95R                  
HYANNIS        PTCLDY    43  40  89 CALM      29.93S                  
CHATHAM        PTCLDY    47  43  86 E3        29.96R                  
PROVINCETOWN   PTCLDY    44  40  85 E6        29.97R                  
NANTUCKET      PTCLDY    46  44  93 E7        29.95R                  
MARTHAS VNYRD  PTCLDY    36  34  92 CALM      29.94R                  
$$
 
MAZALL-071100-
CENTRAL AND WESTERN MASSACHUSETTS
  
CITY           SKY/WX    TMP DP  RH WIND       PRES   REMARKS
WORCESTER      PTCLDY    47  24  40 N9        29.96R                  
FITCHBURG      PTCLDY    40  34  79 CALM      29.98R                  
ORANGE         PTCLDY    38  37  97 CALM      29.98S                  
SPRINGFIELD    MOCLDY    39  38  96 CALM      29.96R                  
WESTFIELD      PTCLDY    40  36  86 N5        29.97R                  
NORTH ADAMS    PTCLDY    34  31  88 CALM      29.98S                  
PITTSFIELD     PTCLDY    37  31  78 CALM      29.95R                  
$$
 
RIZALL-071100-
RHODE ISLAND
  
CITY           SKY/WX    TMP DP  RH WIND       PRES   REMARKS
PROVIDENCE     MOCLDY    47  32  56 N7        29.95S                  
NEWPORT        PTCLDY    47  32  56 NE9       29.93S                  
BLOCK ISLAND   PTCLDY    47  41  80 NE7       29.93S                  
SMITHFIELD       N/A     43  34  70 N5        29.96R                  
WESTERLY       PTCLDY    46  30  53 NE6       29.92F                  
$$
 
CTZALL-071100-
CONNECTICUT
  
CITY           SKY/WX    TMP DP  RH WIND       PRES   REMARKS
BRADLEY INTL   PTCLDY    43  33  68 N5        29.96R                  
HARTFORD       CLEAR     44  34  67 N6        29.96R                  
BRIDGEPORT     CLEAR     50  31  48 NE9       29.93S                  
DANBURY        CLEAR     39  35  86 CALM      29.95S                  
GROTON         PTCLDY    47  32  56 N10       29.92S                  
NEW HAVEN      CLEAR     46  34  62 N8        29.93S                  
CHESTER        FAIR      46  28  49 N6        29.93S                  
MERIDEN        CLEAR     43  34  70 NW5       29.95S                  
WILLIMANTIC    PTCLDY    41  36  82 N5        29.95S                  
OXFORD         CLEAR     47  29  49 NE13      29.94S                  
$$

MEZ002-015-021-024-NHZ003-005-008-011-012-014-VTZ005-008-071100-
NORTHERN NEW ENGLAND
  
CITY           SKY/WX    TMP DP  RH WIND       PRES   REMARKS
PORTLAND ME    MOCLDY    36  33  89 W3        30.00R                  
BANGOR ME      PTCLDY    35  29  78 N6        29.98R WCI  30          
CONCORD NH     PTCLDY    35  32  88 CALM      29.99R                  
MANCHESTER NH  MOCLDY    46  33  60 N5        29.96S                  
NASHUA NH      PTCLDY    42  40  92 NW3       29.98S                  
PORTSMOUTH NH  MOCLDY    42  32  69 CALM      30.00R                  
JAFFREY NH     PTCLDY    36  33  89 CALM      29.97R                  
KEENE NH       FOG       34  34 100 CALM      29.99R VSB 1            
BURLINGTON VT  PTCLDY    35  30  82 E5        29.99R WCI  31          
MT. WASHINGTON PTCLDY    19  16  86 NW18        N/A  WCI   4          
$$

NYZ052-076-071100-
EASTERN NEW YORK
  
CITY           SKY/WX    TMP DP  RH WIND       PRES   REMARKS
ALBANY         PTCLDY    34  33  96 CALM      29.99R                  
NEW YORK CITY  PTCLDY    51  30  44 N6        29.92S                  
$$
 
ANZALL-071100-
MARINE OBSERVATIONS
  
STATION/POSITION TIME  TEMP    WIND        PRES    VSBY  WAVE
                       AIR SEA DIR/SP/G                  HT/PER
                 (UTC) (F)     (DEG/KT/KT) (MB)    (MI)  (FT/S)
BOSTON BUOY      0940   49 47   20/  8/ 10 1014.6S
BUZZARDS BAY     0900           40/ 13/ 14 1014.4R
NANTUCKET SOUND  0940      52                N/A
MASS BAY-STELLWA NOT AVBL
ISLE OF SHOALS   0900   49      10/  4/  5 1014.6R
S OF BLOCK IS    0926      49                N/A           2/ 8
$$

......................KEY.........................
  SKY/WX - SKY CONDITION/PRESENT WEATHER
  TMP    - TEMPERATURE IN FAHRENHEIT
  DWPT   - DEWPOINT IN FAHRENHEIT
  RH     - RELATIVE HUMIDITY IN PERCENT
  WIND   - DIRECTION AND SPEED IN MPH
  PRES   - MEAN SEA LEVEL PRESSURE IN INCHES OF HG
  WCI    - WIND CHILL INDEX
  VSB    - VISIBILITY IN MILES
  HX     - HEAT INDEX
  TC     - TEMPERATURE IN CELSIUS
  VRB    - VARIABLE WIND DIRECTION
  N/A    - NOT AVAILABLE
  
      

Other recent Regional Weather Roundups

Wed May 12, 4:04am

Wed May 12, 3:04am

Wed May 12, 2:04am

Wed May 12, 1:04am

Wed May 12, 12:05am

Tue May 11, 11:05pm

Tue May 11, 10:04pm

Tue May 11, 9:05pm

Tue May 11, 8:05pm

Tue May 11, 7:04pm

Tue May 11, 6:04pm

Tue May 11, 5:04pm

Tue May 11, 4:05pm

Tue May 11, 3:04pm

Tue May 11, 2:05pm

Tue May 11, 1:04pm

Tue May 11, 12:05pm

Tue May 11, 11:05am

Tue May 11, 10:04am

Tue May 11, 9:04am

Tue May 11, 8:04am

Tue May 11, 7:05am

Tue May 11, 6:04am

Tue May 11, 5:04am

Tue May 11, 4:04am

Tue May 11, 3:04am

Tue May 11, 2:04am

Tue May 11, 1:04am

Tue May 11, 12:04am

Mon May 10, 11:04pm

Mon May 10, 10:04pm

Mon May 10, 9:05pm

Mon May 10, 8:04pm

Mon May 10, 7:05pm

Mon May 10, 6:04pm

Mon May 10, 5:04pm

Mon May 10, 4:04pm

Mon May 10, 3:04pm

Mon May 10, 2:04pm

Mon May 10, 1:04pm

Mon May 10, 12:04pm

Mon May 10, 11:05am

Mon May 10, 10:04am

Mon May 10, 9:04am

Mon May 10, 8:04am

Mon May 10, 7:04am

Mon May 10, 6:04am

Mon May 10, 5:05am

Mon May 10, 4:04am

Mon May 10, 3:04am

Mon May 10, 2:04am

Mon May 10, 1:04am

Mon May 10, 12:04am

Sun May 9, 11:04pm

Sun May 9, 10:04pm

Sun May 9, 9:04pm

Sun May 9, 8:04pm

Sun May 9, 7:05pm

Sun May 9, 6:04pm

Sun May 9, 5:04pm

Sun May 9, 4:04pm

Sun May 9, 3:04pm

Sun May 9, 2:04pm

Sun May 9, 1:05pm

Sun May 9, 12:04pm

Sun May 9, 11:05am

Sun May 9, 10:04am

Sun May 9, 9:04am

Sun May 9, 8:04am

Sun May 9, 7:04am

Sun May 9, 6:04am

Sun May 9, 5:04am

Sun May 9, 4:04am

Sun May 9, 3:04am

Sun May 9, 2:04am

Sun May 9, 1:05am

Sun May 9, 12:04am

Sat May 8, 11:05pm

Sat May 8, 10:04pm

Sat May 8, 9:05pm

Sat May 8, 8:04pm

Sat May 8, 7:04pm

Sat May 8, 6:04pm

Sat May 8, 5:05pm

Sat May 8, 4:04pm

Sat May 8, 3:05pm

Sat May 8, 2:05pm

Sat May 8, 1:05pm

Sat May 8, 12:04pm

Sat May 8, 11:05am

Sat May 8, 10:04am

Sat May 8, 9:04am

Sat May 8, 8:04am

Sat May 8, 7:04am

Sat May 8, 6:04am

Sat May 8, 5:04am

Sat May 8, 4:04am

Sat May 8, 3:04am

Sat May 8, 2:04am

Sat May 8, 1:05am

Sat May 8, 12:04am

Fri May 7, 11:04pm

Fri May 7, 10:05pm

Fri May 7, 9:04pm

Fri May 7, 8:04pm

Fri May 7, 7:05pm

Fri May 7, 6:04pm

Fri May 7, 5:05pm

Fri May 7, 4:04pm

Fri May 7, 3:04pm

Fri May 7, 2:05pm

Fri May 7, 1:04pm

Fri May 7, 12:04pm

Fri May 7, 11:05am

Fri May 7, 10:04am

Fri May 7, 9:04am

Fri May 7, 8:05am

Fri May 7, 7:04am

Fri May 7, 5:04am

Fri May 7, 4:04am

Fri May 7, 3:04am

Fri May 7, 2:05am

Fri May 7, 1:04am

Fri May 7, 12:05am

Thu May 6, 11:04pm

Thu May 6, 10:04pm

Thu May 6, 9:05pm

Thu May 6, 8:04pm

Thu May 6, 7:04pm

Thu May 6, 6:04pm

Thu May 6, 5:05pm

Thu May 6, 4:04pm

Thu May 6, 3:04pm

Thu May 6, 2:05pm

Thu May 6, 1:04pm

Thu May 6, 12:04pm

Thu May 6, 11:04am

Thu May 6, 10:04am

Thu May 6, 9:04am

Thu May 6, 8:04am

Thu May 6, 7:04am

Thu May 6, 6:04am

Thu May 6, 5:04am

Thu May 6, 4:04am

Thu May 6, 3:04am

Thu May 6, 2:05am

Thu May 6, 1:04am

Thu May 6, 12:05am

Wed May 5, 11:04pm

Wed May 5, 10:04pm

Wed May 5, 9:05pm

Wed May 5, 8:04pm

Wed May 5, 7:05pm

Wed May 5, 6:04pm

Wed May 5, 5:04pm

Wed May 5, 4:04pm

Wed May 5, 3:04pm

Wed May 5, 2:05pm

Wed May 5, 1:05pm

Wed May 5, 12:04pm

Wed May 5, 11:05am

Wed May 5, 10:04am

Wed May 5, 9:04am

Wed May 5, 8:04am

Wed May 5, 7:04am

Wed May 5, 6:05am

Wed May 5, 5:04am

Meta data:

ID: bc60011f-8470-4a00-a031-3b670b479603
Link: https://api.weather.gov/products/bc60011f-8470-4a00-a031-3b670b479603